Location: Denia
(38.8500°N, 0.1170°E)
Time: 03:03:00
(UTC+01:00)

Envisat - Pass Details

Date: 27 January 2020
Orbit: 764 x 766 km, 98.1° (Epoch: 25 February)

Event Time Altitude Azimuth Distance (km) Brightness Sun altitude
Rises 07:38:18 0° 13° (NNE) 3,239 6.2 -6.6°
Reaches altitude 10° 07:40:37 10° 14° (NNE) 2,309 5.4 -6.2°
Maximum altitude 07:45:43 84° 103° (ESE) 773 3.1 -5.3°
Drops below altitude 10° 07:50:47 10° 192° (SSW) 2,292 5.6 -4.4°
Sets 07:53:04 0° 193° (SSW) 3,214 6.3 -3.9°
